Weather History for Holland, MI

Change the Weather History Date:

Sunday, December 22, 2013

  Actual Average Record
Temperature  
Mean Temperature 31 °F 30 °F  
Max Temperature 32 °F 35 °F 57 °F (1957)
Min Temperature 29 °F 24 °F -2 °F (1989)
Degree Days  
Heating Degree Days 34 35  
Month to date heating degree days 816 716  
Since 1 July heating degree days 2052 1939  
Cooling Degree Days 0 0  
Month to date cooling degree days 0 0  
Year to date cooling degree days 813 693  
Moisture  
Dew Point 29 °F    
Average Humidity 89    
Maximum Humidity 92    
Minimum Humidity 85    
Precipitation  
Precipitation 0.15 in 0.06 in 1.01 in (1949)
Month to date precipitation 1.19 1.79  
Year to date precipitation 39.70 35.95  
Sea Level Pressure  
Sea Level Pressure 29.74 in    
Wind  
Wind Speed 6 mph (NNE)    
Max Wind Speed 18 mph    
Max Gust Speed 29 mph    
Visibility 7 miles    
Events Fog , Rain , Snow    
T = Trace of Precipitation, MM = Missing Value Source: NWS Daily Summary

Daily Weather History Graph

Daily Weather History Graph

Search for Another Location

Airport:

Trip Planner

Search our weather history database for the weather conditions in past years. The results will help you decide how hot, cold, wet, or windy it might be!

Date:

Astronomy

Dec. 22, 2013 Rise Set
Actual Time 8:12 AM EST 5:14 PM EST
Civil Twilight 7:39 AM EST 5:46 PM EST
Nautical Twilight 7:04 AM EST 6:22 PM EST
Astronomical Twilight 6:29 AM EST 6:56 PM EST
Moon 10:33 PM EST (12/22) 11:02 AM EST (12/22)
Length of Visible Light 10h 06m
Length of Day
9h 02m
Waning Gibbous, 77% of the Moon is Illuminated
Dec 22
Waning Gibbous
Dec 25
Last Quarter
Jan 1
New
Jan 7
First Quarter
Jan 15
Full

Hourly Weather History & Observations

Time (EST) Temp. Windchill Dew Point Humidity Pressure Visibility Wind Dir Wind Speed Gust Speed Precip Events Conditions
12:39 AM 30.9 °F 21.2 °F 28.0 °F 89% 29.65 in 10.0 mi ENE 12.7 mph 23.0 mph 0.00 in   Overcast
12:53 AM 30.9 °F 19.1 °F 27.0 °F 85% 29.58 in 10.0 mi ENE 18.4 mph 29.9 mph 0.00 in   Overcast
1:49 AM 30.2 °F 20.2 °F 28.4 °F 93% 29.65 in 5.0 mi ENE 12.7 mph - 0.01 in Rain Light Freezing Rain
1:53 AM 30.9 °F 22.8 °F 28.0 °F 89% 29.69 in 4.0 mi ENE 9.2 mph 18.4 mph 0.01 in Rain Light Freezing Rain
2:42 AM 30.9 °F 21.7 °F 28.9 °F 92% 29.63 in 6.0 mi ENE 11.5 mph - 0.02 in Rain Light Freezing Rain
2:49 AM 30.2 °F 20.2 °F 28.4 °F 93% 29.62 in 8.0 mi NE 12.7 mph - 0.02 in   Overcast
2:53 AM 32.0 °F 23.0 °F 28.9 °F 88% 29.65 in 9.0 mi ENE 11.5 mph 19.6 mph 0.02 in   Overcast
3:31 AM 32.0 °F 24.2 °F 28.9 °F 88% 29.63 in 5.0 mi NNE 9.2 mph - 0.01 in Rain Light Freezing Rain
3:38 AM 32.0 °F 23.0 °F 28.9 °F 88% 29.63 in 4.0 mi NE 11.5 mph 17.3 mph 0.01 in Rain Light Freezing Rain
3:46 AM 32.0 °F 23.6 °F 28.9 °F 88% 29.62 in 4.0 mi NNE 10.4 mph 18.4 mph 0.01 in   Overcast
3:53 AM 32.0 °F 22.5 °F 28.9 °F 88% 29.64 in 4.0 mi NNE 12.7 mph 20.7 mph 0.02 in   Overcast
4:29 AM 32.0 °F 24.2 °F 28.9 °F 88% 29.61 in 4.0 mi NNE 9.2 mph 19.6 mph 0.01 in Rain Light Freezing Rain
4:53 AM 30.9 °F 24.3 °F 28.9 °F 92% 29.63 in 3.0 mi NNE 6.9 mph 18.4 mph 0.02 in Rain Light Freezing Rain
5:48 AM 30.2 °F 20.8 °F 28.4 °F 93% 29.59 in 5.0 mi NE 11.5 mph 19.6 mph 0.01 in   Overcast
5:53 AM 30.9 °F 22.8 °F 28.9 °F 92% 29.62 in 5.0 mi NE 9.2 mph 19.6 mph 0.01 in   Overcast
6:16 AM 32.0 °F 23.6 °F 28.9 °F 88% 29.60 in 5.0 mi ENE 10.4 mph 19.6 mph 0.00 in Rain Light Freezing Rain
6:26 AM 32.0 °F 24.2 °F 30.0 °F 92% 29.60 in 6.0 mi ENE 9.2 mph - 0.00 in   Overcast
6:53 AM 32.0 °F 24.2 °F 30.0 °F 92% 29.64 in 6.0 mi ENE 9.2 mph - 0.01 in   Overcast
7:00 AM 32.0 °F 23.6 °F 30.0 °F 92% 29.61 in 5.0 mi ENE 10.4 mph - 0.00 in Rain Light Freezing Rain
7:18 AM 32.0 °F 23.6 °F 30.0 °F 92% 29.61 in 8.0 mi ENE 10.4 mph - 0.00 in   Overcast
7:53 AM 32.0 °F 22.1 °F 28.9 °F 88% 29.64 in 10.0 mi ENE 13.8 mph 19.6 mph 0.00 in   Overcast
8:53 AM 32.0 °F 24.2 °F 28.9 °F 88% 29.65 in 10.0 mi East 9.2 mph 19.6 mph N/A   Overcast
9:53 AM 32.0 °F 28.7 °F 30.0 °F 92% 29.71 in 2.5 mi East 3.5 mph - 0.00 in Rain Light Freezing Rain
10:02 AM 32.0 °F 28.7 °F 30.0 °F 92% 29.69 in 1.8 mi North 3.5 mph - 0.01 in Rain Light Freezing Rain
10:07 AM 32.0 °F - 30.0 °F 92% 29.70 in 1.2 mi Calm Calm - 0.02 in Snow Light Snow
10:20 AM 32.0 °F 28.7 °F 30.0 °F 92% 29.71 in 0.5 mi NNW 3.5 mph - 0.03 in Fog , Snow Snow
10:43 AM 32.0 °F 28.7 °F 30.0 °F 92% 29.72 in 0.8 mi NNW 3.5 mph - 0.05 in Snow Light Snow
10:53 AM 32.0 °F 27.5 °F 30.0 °F 92% 29.75 in 0.8 mi NNW 4.6 mph - 0.05 in Snow Light Snow
11:21 AM 32.0 °F 27.5 °F 30.0 °F 92% 29.72 in 1.0 mi Variable 4.6 mph - 0.01 in Snow Light Snow
11:29 AM 32.0 °F 26.4 °F 30.0 °F 92% 29.72 in 1.2 mi North 5.8 mph - 0.01 in Snow Light Snow
11:35 AM 32.0 °F 26.4 °F 28.9 °F 88% 29.71 in 1.5 mi Variable 5.8 mph - 0.01 in Snow Light Snow
11:45 AM 32.0 °F 25.6 °F 28.9 °F 88% 29.71 in 3.0 mi North 6.9 mph - 0.01 in Snow Light Snow
11:53 AM 32.0 °F 27.5 °F 28.9 °F 88% 29.75 in 6.0 mi North 4.6 mph - 0.01 in   Overcast
12:17 PM 32.0 °F 24.2 °F 28.9 °F 88% 29.71 in 10.0 mi North 9.2 mph - N/A   Overcast
12:26 PM 32.0 °F 24.8 °F 28.9 °F 88% 29.69 in 10.0 mi NNE 8.1 mph - N/A   Overcast
12:42 PM 32.0 °F 25.6 °F 28.9 °F 88% 29.72 in 10.0 mi North 6.9 mph - N/A   Overcast
12:53 PM 32.0 °F 24.8 °F 28.9 °F 88% 29.75 in 10.0 mi NNE 8.1 mph - N/A   Overcast
1:53 PM 32.0 °F 26.4 °F 28.9 °F 88% 29.78 in 10.0 mi NNE 5.8 mph - N/A   Overcast
2:07 PM 32.0 °F 28.7 °F 28.0 °F 85% 29.76 in 10.0 mi NNE 3.5 mph - N/A   Overcast
2:23 PM 32.0 °F 27.5 °F 28.0 °F 85% 29.76 in 10.0 mi Variable 4.6 mph - N/A   Overcast
2:53 PM 30.9 °F 26.2 °F 28.0 °F 89% 29.81 in 10.0 mi NNW 4.6 mph - N/A   Overcast
3:53 PM 32.0 °F 28.7 °F 28.0 °F 85% 29.85 in 10.0 mi North 3.5 mph - N/A   Overcast
4:37 PM 30.9 °F 27.5 °F 28.0 °F 89% 29.85 in 10.0 mi NNW 3.5 mph - N/A   Overcast
4:50 PM 30.2 °F 25.4 °F 28.4 °F 93% 29.86 in 10.0 mi NNW 4.6 mph - N/A   Overcast
4:53 PM 30.9 °F 27.5 °F 28.0 °F 89% 29.88 in 10.0 mi NNW 3.5 mph - N/A   Overcast
5:28 PM 30.0 °F - 28.0 °F 92% 29.88 in 10.0 mi Calm Calm - N/A   Overcast
5:53 PM 30.0 °F - 28.0 °F 92% 29.92 in 10.0 mi Calm Calm - N/A   Overcast
6:53 PM 30.9 °F - 28.0 °F 89% 29.93 in 10.0 mi Calm Calm - N/A   Overcast
7:23 PM 30.0 °F 26.5 °F 28.0 °F 92% 29.92 in 10.0 mi North 3.5 mph - N/A   Overcast
7:53 PM 30.0 °F 26.5 °F 27.0 °F 88% 29.95 in 10.0 mi North 3.5 mph - N/A   Overcast
8:11 PM 30.0 °F - 28.0 °F 92% 29.93 in 10.0 mi Calm Calm - N/A   Overcast
8:53 PM 30.0 °F - 27.0 °F 88% 29.97 in 10.0 mi Calm Calm - N/A   Overcast
9:35 PM 30.0 °F - 27.0 °F 88% 29.97 in 9.0 mi Calm Calm - N/A   Overcast
9:53 PM 28.9 °F - 27.0 °F 92% 29.99 in 10.0 mi Calm Calm - N/A   Overcast
10:53 PM 28.9 °F - 26.1 °F 89% 30.00 in 10.0 mi Calm Calm - N/A   Overcast
11:53 PM 28.9 °F 25.2 °F 25.0 °F 85% 30.04 in 9.0 mi North 3.5 mph - N/A   Overcast